Weather in Ivolginsk

Russia / Republic of Buryatia     51°44′45″N   107°16′31″E
temp.,
°C
wind,
m/s
gust,
m/s
humid.,
%
clouds,
%
prec.,
mm/h
press.,
hPa
HPBL,
m
11 may, tue
tue1123:00+2wnw128895 0.1 101470
02:00+2nw2496100 1.0 1014305
05:00+3wnw139399 0.2 1014277
08:00+5wnw277873 0.2 1015863
11:00+8nw486143 0.1 10151247
14:00+11nw694429 0.1 10131955
17:00+11nw68483 0.1 10131355
20:00+8wnw395821 0.1 1013381
12 may, wed
wed1223:00+4wsw22715 0.0 101533
02:00+3wsw22764 0.0 101422
05:00+2wsw22777 0.0 101416
08:00+9wsw36515 0.0 1012876
11:00+12wnw684167 0.1 10102072
14:00+12nw694917 0.4 10101762
17:00+11nw710468 0.1 10101645
20:00+8wnw24482 0.1 1011107
13 may, thu
thu1323:00+3nw226610 0.0 101327
02:00+1nw227137 0.0 101423
05:000nw227682 0.0 101525
08:00+5nw48445 0.0 10151822
11:00+6nw6836100 0.0 10142395
14:00+7nw783493 0.1 10142540
17:00+8nw693192 0.0 10142601
20:00+5nw354326 0.0 1015195
14 may, fri
fri1423:00+1w22600 0.0 101736
02:000w22714 0.0 101817
05:00−1wnw11795 0.0 101817
08:00+5wsw13520 0.0 1018672
11:00+11nw13310 0.0 10151522
14:00+14nw13220 0.0 10122126
17:00+15nnw34190 0.0 10112265
20:00+10n22360 0.0 101219
15 may, sat
sat1523:00+6n11410 0.0 101410
02:00+4ne00445 0.0 101410
05:00+3w015129 0.0 101511
08:00+8s233850 0.0 1014361
11:00+15ssw142530 0.0 10131400
14:00+18n342329 0.0 10122315
17:00+17nw33315 0.0 10111375
20:00+12nw22498 0.0 101217